Location: Unspecified
(0.0000°N, 0.0000°E)
Time: 11:22:35
(UTC+00:00)

deb Explorer IX - All Passes

Search period start: 06 July 2015 00:00
Search period end: 16 July 2015 00:00
Orbit: 544 x 1153 km, 38.8° (Epoch: 05 July)

Date Brightness Start Highest point End Pass type
(mag) Time Alt. Az. Time Alt. Az. Time Alt. Az.
06 Jul - 05:17:01 10° NNW 05:22:49 32° NE 05:29:19 10° ESE visible
06 Jul - 07:03:51 10° WNW 07:10:51 56° SW 07:18:17 10° SE daylight
06 Jul - 08:56:34 10° WSW 08:59:38 12° SSW 09:02:14 10° SSW daylight
06 Jul - 18:06:23 10° SW 18:11:01 67° SE 18:15:08 10° ENE daylight
06 Jul - 19:57:32 10° NW 19:58:18 10° NW 19:58:50 10° NNW visible
07 Jul - 05:02:04 10° NNW 05:07:57 36° NE 05:14:36 10° ESE visible
07 Jul - 06:49:10 10° WNW 06:55:58 49° SW 07:03:15 10° SSE daylight
07 Jul - 08:43:14 10° SW 08:44:53 10° SSW 08:46:01 10° SSW daylight
07 Jul - 16:08:12 10° SSE 16:08:21 10° SSE 16:08:44 10° SE daylight
07 Jul - 17:51:32 10° SW 17:56:19 83° SE 18:00:31 10° NE daylight
08 Jul - 04:47:09 10° NNW 04:53:04 40° NE 04:59:51 10° ESE visible
08 Jul - 06:34:31 10° WNW 06:41:05 43° SW 06:48:10 10° SSE daylight
08 Jul - 15:51:31 10° S 15:53:42 13° SSE 15:55:57 10° ESE daylight
08 Jul - 17:36:41 10° SW 17:41:36 81° NW 17:45:51 10° NE daylight
09 Jul - 04:32:15 10° NNW 04:38:11 45° NE 04:45:02 10° ESE visible
09 Jul - 06:19:55 10° WNW 06:26:13 38° SW 06:33:02 10° SSE daylight
09 Jul - 15:35:53 10° S 15:39:01 16° SSE 15:42:04 10° ESE daylight
09 Jul - 17:21:50 10° SW 17:26:51 66° NW 17:31:09 10° NE daylight
10 Jul - 04:17:23 10° NNW 04:23:17 51° NE 04:30:11 10° ESE visible
10 Jul - 06:05:21 10° W 06:11:21 33° SW 06:17:52 10° SSE daylight
10 Jul - 15:20:26 10° S 15:24:19 19° SE 15:27:57 10° E daylight
10 Jul - 17:07:00 10° WSW 17:12:05 55° NW 17:16:25 10° NE daylight
11 Jul - 04:02:32 10° NW 04:08:23 58° NE 04:15:17 10° ESE visible
11 Jul - 05:50:50 10° W 05:56:30 29° SW 06:02:37 10° SSE daylight
11 Jul - 15:05:05 10° SSW 15:09:36 23° SE 15:13:40 10° E daylight
11 Jul - 16:52:11 10° WSW 16:57:18 46° NW 17:01:38 10° NNE daylight
12 Jul - 03:47:43 10° NW 03:53:29 66° NE 04:00:21 10° ESE visible
12 Jul - 05:36:22 10° W 05:41:40 25° SW 05:47:19 10° SSE visible
12 Jul - 14:49:48 10° SSW 14:54:50 28° SE 14:59:17 10° E daylight
12 Jul - 16:37:23 10° WSW 16:42:29 39° NW 16:46:48 10° NNE daylight
13 Jul - 01:49:49 10° NNE 01:51:01 11° NE 01:52:36 10° ENE night (unlit)
13 Jul - 03:32:55 10° NW 03:38:35 76° NE 03:45:22 10° SE visible
13 Jul - 05:21:58 10° W 05:26:50 21° SW 05:31:57 10° S visible
13 Jul - 14:34:34 10° SSW 14:40:03 33° SE 14:44:50 10° E daylight
13 Jul - 16:22:36 10° WSW 16:27:38 34° NW 16:31:56 10° NNE daylight
14 Jul - 01:34:12 10° NNE 01:36:11 12° NE 01:38:37 10° ENE night (unlit)
14 Jul - 03:18:08 10° NW 03:23:41 87° NE 03:30:21 10° SE visible
14 Jul - 05:07:40 10° WSW 05:12:01 18° SSW 05:16:30 10° S visible
14 Jul - 14:19:20 10° SSW 14:25:14 39° SE 14:30:18 10° ENE daylight
14 Jul - 16:07:49 10° WSW 16:12:47 30° NW 16:17:02 10° NNE daylight
15 Jul - 01:18:51 10° NNE 01:21:22 14° NE 01:24:20 10° ENE night (unlit)
15 Jul - 03:03:23 10° NW 03:08:48 81° SW 03:15:18 10° SE visible
15 Jul - 04:53:30 10° WSW 04:57:12 15° SSW 05:00:55 10° S visible
15 Jul - 14:04:09 10° SSW 14:10:23 46° SE 14:15:42 10° ENE daylight
15 Jul - 15:53:04 10° W 15:57:55 26° NW 16:02:04 10° NNE daylight
